WX4SGA Weather Reports


time (UTC)temp
C
wind
direction
speed
KPH
gust
KPH
rain 1hr
cm
rain 24hr
cm
rain mn
cm
humidity
%
barometer
mb
20260906123145 25 27 0.0 1.6 0.00 0.00 0.00 96 1013.5
20260906122643 25 12 1.6 3.2 0.00 0.00 0.00 96 1013.2
20260906122139 25 349 1.6 1.6 0.00 0.00 0.00 97 1013.2
20260906121635 25 33 0.0 1.6 0.00 0.00 0.00 98 1013.2
20260906121132 25 46 0.0 1.6 0.00 0.00 0.00 99 1013.2
20260906120627 25 29 0.0 0.0 0.00 0.00 0.00 99 1013.2
20260906120125 25 18 0.0 1.6 0.00 0.00 0.00 99 1013.2
20260906115619 24 54 0.0 0.0 0.00 0.00 0.00 99 1013.2
20260906115114 24 32 0.0 0.0 0.00 0.00 0.00 99 1013.2
20260906114608 24 34 0.0 0.0 0.00 0.00 0.00 99 1013.2
20260906114103 24 34 0.0 0.0 0.00 0.00 0.00 99 1013.2
20260906113603 24 35 0.0 0.0 0.00 0.00 0.00 99 1013.2
20260906113057 23 35 0.0 0.0 0.00 0.00 0.00 99 1013.2
20260906112551 24 34 0.0 0.0 0.00 0.00 0.00 99 1013.2
20260906112048 23 34 0.0 0.0 0.00 0.00 0.00 99 1012.9
20260906111548 23 34 0.0 0.0 0.00 0.00 0.00 99 1012.9
20260906111043 23 35 0.0 0.0 0.00 0.00 0.00 99 1012.9
20260906110542 23 35 0.0 0.0 0.00 0.00 0.00 99 1012.9
20260906110042 23 35 0.0 0.0 0.00 0.00 0.00 99 1012.9
20260906105537 24 35 0.0 0.0 0.00 0.00 0.00 99 1012.9
20260906105033 24 35 0.0 0.0 0.00 0.00 0.00 99 1012.9
20260906104532 23 35 0.0 0.0 0.00 0.00 0.00 99 1012.9
20260906104032 24 36 0.0 0.0 0.00 0.00 0.00 99 1012.5
20260906103530 24 34 0.0 0.0 0.00 0.00 0.00 99 1012.5
20260906103026 24 32 0.0 0.0 0.00 0.00 0.00 99 1012.5
20260906102526 24 33 0.0 0.0 0.00 0.00 0.00 99 1012.2
20260906102021 24 33 0.0 0.0 0.00 0.00 0.00 99 1012.2
20260906101515 24 32 0.0 0.0 0.00 0.00 0.00 99 1012.5
20260906101010 24 32 0.0 0.0 0.00 0.00 0.00 99 1012.5
20260906100506 24 32 0.0 0.0 0.00 0.00 0.00 99 1012.5
20260906100001 24 32 0.0 0.0 0.00 0.00 0.00 99 1012.2
20260906095455 24 31 0.0 0.0 0.00 0.00 0.00 99 1012.2
20260906094951 24 31 0.0 0.0 0.00 0.00 0.00 99 1012.2
20260906094449 24 31 0.0 0.0 0.00 0.00 0.00 99 1012.2
20260906093946 24 31 0.0 0.0 0.00 0.00 0.00 99 1012.2
20260906093442 24 31 0.0 0.0 0.00 0.00 0.00 99 1012.2
20260906092941 24 31 0.0 0.0 0.00 0.00 0.00 99 1012.2
20260906092441 25 30 0.0 0.0 0.00 0.00 0.00 99 1012.2
20260906091937 25 34 0.0 0.0 0.00 0.00 0.00 99 1011.9
20260906091432 25 32 0.0 0.0 0.00 0.00 0.00 98 1011.9
20260906090929 25 32 0.0 0.0 0.00 0.00 0.00 98 1011.9
20260906090424 25 10 0.0 1.6 0.00 0.00 0.00 98 1011.9
20260906085918 25 18 0.0 0.0 0.00 0.00 0.00 98 1012.2
20260906085412 25 18 0.0 0.0 0.00 0.00 0.00 98 1012.2
20260906084912 25 18 0.0 0.0 0.00 0.00 0.00 98 1011.9
20260906084407 25 18 0.0 0.0 0.00 0.00 0.00 98 1011.9
20260906083905 25 21 0.0 0.0 0.00 0.00 0.00 97 1011.9
20260906083401 25 27 0.0 0.0 0.00 0.00 0.00 98 1011.9
20260906082901 25 26 0.0 0.0 0.00 0.00 0.00 98 1012.2
20260906082400 25 19 0.0 1.6 0.00 0.00 0.00 98 1011.9
20260906081857 25 33 0.0 0.0 0.00 0.00 0.00 98 1012.2
20260906081352 25 31 0.0 0.0 0.00 0.00 0.00 99 1012.2
20260906080848 25 32 0.0 0.0 0.00 0.00 0.00 99 1011.9
20260906080344 25 32 0.0 0.0 0.00 0.00 0.00 99 1012.2
20260906075843 25 32 0.0 0.0 0.00 0.00 0.00 98 1012.2
20260906075338 25 33 0.0 1.6 0.00 0.00 0.00 98 1011.9
20260906074834 25 35 0.0 0.0 0.00 0.00 0.00 98 1011.9
20260906074333 25 36 0.0 0.0 0.00 0.00 0.00 98 1012.2
20260906073832 25 36 0.0 0.0 0.00 0.00 0.00 98 1012.2
20260906073327 25 35 0.0 0.0 0.00 0.00 0.00 97 1012.2
20260906072824 25 35 0.0 0.0 0.00 0.00 0.00 97 1012.2
20260906072319 25 35 0.0 0.0 0.00 0.00 0.00 97 1012.2
20260906071815 25 33 0.0 0.0 0.00 0.00 0.00 96 1012.2
20260906071310 25 31 0.0 0.0 0.00 0.00 0.00 96 1012.2
20260906070807 25 31 0.0 1.6 0.00 0.00 0.00 96 1012.2
20260906070302 25 24 0.0 0.0 0.00 0.00 0.00 96 1012.2
20260906065801 25 26 0.0 0.0 0.00 0.00 0.00 96 1012.2
20260906065257 25 16 0.0 0.0 0.00 0.00 0.00 95 1012.2
20260906064752 25 13 1.6 1.6 0.00 0.00 0.00 94 1012.5
20260906064248 25 18 0.0 1.6 0.00 0.00 0.00 94 1012.5
20260906063743 25 7 1.6 1.6 0.00 0.00 0.00 94 1012.5
20260906063238 25 18 0.0 0.0 0.00 0.00 0.00 95 1012.5
20260906062733 25 25 0.0 0.0 0.00 0.00 0.00 95 1012.5
20260906062233 25 24 0.0 0.0 0.00 0.00 0.00 95 1012.5
20260906061729 25 10 1.6 1.6 0.00 0.00 0.00 95 1012.9
20260906061225 25 36 0.0 0.0 0.00 0.00 0.00 96 1012.9
20260906060720 25 37 0.0 0.0 0.00 0.00 0.00 95 1012.9
20260906060218 25 37 0.0 0.0 0.00 0.00 0.00 95 1012.9
20260906055713 25 41 0.0 0.0 0.00 0.00 0.00 95 1012.9
20260906055209 25 35 0.0 0.0 0.00 0.00 0.00 95 1012.9
20260906054704 25 37 0.0 0.0 0.00 0.00 0.00 94 1012.9
20260906054204 25 37 0.0 0.0 0.00 0.00 0.00 94 1012.5
20260906053701 25 40 0.0 0.0 0.00 0.00 0.00 93 1012.9
20260906053155 25 28 0.0 3.2 0.00 0.00 0.00 93 1012.9
20260906052651 25 35 0.0 0.0 0.00 0.00 0.00 93 1012.9
20260906052147 25 30 0.0 0.0 0.00 0.00 0.00 93 1012.9
20260906051643 26 13 0.0 1.6 0.00 0.00 0.00 93 1012.9
20260906051143 26 53 0.0 0.0 0.00 0.00 0.00 92 1012.5
20260906050638 25 20 1.6 3.2 0.00 0.00 0.00 93 1012.5
20260906050134 25 14 0.0 0.0 0.00 0.00 0.00 94 1012.5
20260906045632 25 23 0.0 1.6 0.00 0.00 0.00 94 1012.5
20260906045127 26 30 0.0 0.0 0.00 0.00 0.00 93 1012.5
20260906044623 26 38 0.0 0.0 0.00 0.00 0.00 93 1012.9
20260906044118 26 54 0.0 1.6 0.00 0.00 0.00 92 1012.9
20260906043615 26 16 0.0 0.0 0.00 0.00 0.00 93 1012.9
20260906043110 26 25 0.0 0.0 0.00 0.00 0.00 94 1012.9
20260906042609 26 26 0.0 0.0 0.00 0.00 0.00 94 1012.5
20260906042103 26 27 0.0 0.0 0.00 0.00 0.00 94 1012.9
20260906041600 26 36 0.0 0.0 0.00 0.00 0.00 94 1012.9
20260906041054 26 57 0.0 0.0 0.00 0.00 0.00 94 1012.9
20260906040550 26 29 0.0 0.0 0.00 0.00 0.00 95 1012.9
20260906040045 26 44 0.0 0.0 0.00 0.00 0.00 94 1013.2
20260906035541 26 39 0.0 0.0 0.00 0.00 0.00 95 1013.2
20260906035037 26 27 0.0 0.0 0.00 0.00 0.00 94 1013.2
20260906034536 26 24 0.0 0.0 0.00 0.00 0.00 94 1013.2
20260906034025 26 31 0.0 0.0 0.00 0.00 0.00 94 1013.5
20260906033520 26 4 0.0 1.6 0.00 0.00 0.00 93 1013.5
20260906033016 26 43 0.0 0.0 0.00 0.00 0.00 93 1013.5
20260906032512 26 32 0.0 0.0 0.00 0.00 0.00 93 1013.5
20260906032006 26 44 0.0 0.0 0.00 0.00 0.00 92 1013.5
20260906031502 26 57 0.0 1.6 0.00 0.00 0.00 92 1013.5
20260906030957 26 59 0.0 1.6 0.00 0.00 0.00 92 1013.5
20260906030452 26 58 0.0 1.6 0.00 0.00 0.00 91 1013.5
20260906025946 26 43 0.0 0.0 0.00 0.00 0.00 91 1013.5
20260906025445 26 69 0.0 1.6 0.00 0.00 0.00 92 1013.5
20260906024944 26 68 0.0 1.6 0.00 0.00 0.00 92 1013.5
20260906024444 26 38 0.0 0.0 0.00 0.00 0.00 93 1013.5
20260906023939 26 38 0.0 1.6 0.00 0.00 0.00 92 1013.5
20260906023436 26 39 0.0 0.0 0.00 0.00 0.00 92 1013.5
20260906022935 26 52 0.0 0.0 0.00 0.00 0.00 91 1013.5
20260906022426 26 38 0.0 0.0 0.00 0.00 0.00 92 1013.5
20260906021920 26 38 0.0 0.0 0.00 0.00 0.00 91 1013.9
20260906021420 27 33 0.0 0.0 0.00 0.00 0.00 91 1013.5
20260906020915 26 50 0.0 0.0 0.00 0.00 0.00 90 1013.5
20260906020415 26 53 0.0 0.0 0.00 0.00 0.00 92 1013.5
20260906015909 26 46 0.0 1.6 0.00 0.00 0.00 92 1013.5
20260906015409 26 47 0.0 0.0 0.00 0.00 0.00 91 1013.2
20260906014903 27 54 0.0 0.0 0.00 0.00 0.00 91 1013.2
20260906014402 27 58 0.0 1.6 0.00 0.00 0.00 90 1013.2
20260906013859 27 57 1.6 1.6 0.00 0.00 0.00 89 1013.2
20260906013354 27 49 0.0 0.0 0.00 0.00 0.00 89 1012.9
20260906012849 26 51 0.0 1.6 0.00 0.00 0.00 90 1012.9
20260906012344 26 52 0.0 0.0 0.00 0.00 0.00 91 1012.5
20260906011844 26 63 0.0 1.6 0.00 0.00 0.00 93 1012.5
20260906011339 26 79 0.0 0.0 0.00 0.00 0.00 93 1012.5
20260906010835 26 54 0.0 0.0 0.00 0.00 0.00 93 1012.2
20260906010331 26 54 0.0 0.0 0.00 0.00 0.00 93 1012.5
20260906005826 26 54 0.0 0.0 0.00 0.00 0.00 92 1012.2
20260906005326 26 58 0.0 0.0 0.00 0.00 0.00 92 1011.9
20260906004824 26 57 0.0 0.0 0.00 0.00 0.00 91 1012.2
20260906004324 27 57 0.0 0.0 0.00 0.00 0.00 91 1011.9
20260906003819 27 58 0.0 1.6 0.00 0.00 0.00 91 1011.9
20260906003315 27 57 0.0 0.0 0.00 0.00 0.00 90 1011.9
20260906002810 27 56 0.0 0.0 0.00 0.00 0.00 88 1011.9
20260906002309 27 56 0.0 0.0 0.00 0.00 0.00 87 1011.9
20260906001805 27 56 0.0 0.0 0.00 0.00 0.00 87 1011.9
20260906001300 27 54 0.0 0.0 0.00 0.00 0.00 88 1011.9
20260906000755 27 54 0.0 0.0 0.00 0.00 0.00 88 1011.9
20260906000249 27 54 0.0 0.0 0.00 0.00 0.00 86 1011.9
20260905235744 28 54 0.0 0.0 0.00 0.00 0.00 86 1011.5
20260905235244 28 53 0.0 0.0 0.00 0.00 0.00 86 1011.5
20260905234740 28 53 0.0 0.0 0.00 0.00 0.00 86 1011.5
20260905234235 28 53 0.0 0.0 0.00 0.00 0.00 85 1011.5
20260905233730 28 54 0.0 0.0 0.00 0.00 0.00 84 1011.5
20260905233229 28 48 0.0 0.0 0.00 0.00 0.00 84 1011.5
20260905232724 28 46 0.0 0.0 0.00 0.00 0.00 85 1011.5
20260905232220 28 27 0.0 1.6 0.00 0.00 0.00 84 1011.5
20260905231716 29 63 0.0 1.6 0.00 0.00 0.00 84 1011.5
20260905231212 29 52 0.0 0.0 0.00 0.00 0.00 83 1011.5
20260905230708 29 58 0.0 1.6 0.00 0.00 0.00 82 1011.9
20260905230205 30 66 0.0 1.6 0.00 0.00 0.00 81 1011.9
20260905225705 30 55 0.0 1.6 0.00 0.00 0.00 80 1011.9
20260905225200 31 47 0.0 0.0 0.00 0.00 0.00 75 1011.9
20260905224659 31 41 0.0 0.0 0.00 0.00 0.00 75 1011.9
20260905224154 31 21 1.6 1.6 0.00 0.00 0.00 68 1011.9
20260905223651 31 53 0.0 1.6 0.00 0.00 0.00 72 1011.9
20260905223147 31 32 1.6 1.6 0.00 0.00 0.00 68 1012.2
20260905222643 32 69 1.6 1.6 0.00 0.00 0.00 73 1011.9
20260905222137 32 35 1.6 3.2 0.00 0.00 0.00 69 1012.2
20260905221633 32 37 0.0 1.6 0.00 0.00 0.00 72 1012.2
20260905221130 32 84 0.0 0.0 0.00 0.00 0.00 66 1012.2
20260905220625 32 340 1.6 3.2 0.00 0.00 0.00 66 1012.2
20260905220121 33 67 1.6 1.6 0.00 0.00 0.00 71 1012.2
20260905215620 32 5 1.6 1.6 0.00 0.00 0.00 64 1012.5
20260905215116 33 18 0.0 1.6 0.00 0.00 0.00 64 1012.2
20260905214612 33 334 3.2 3.2 0.00 0.00 0.00 62 1012.2
20260905214111 33 2 3.2 4.8 0.00 0.00 0.00 62 1012.2
20260905213607 33 350 3.2 4.8 0.00 0.00 0.00 60 1012.2
20260905213102 34 334 1.6 3.2 0.00 0.00 0.00 59 1012.2
20260905212557 33 28 0.0 0.0 0.00 0.00 0.00 63 1012.2
20260905212057 32 14 1.6 6.4 0.00 0.00 0.00 63 1011.9
20260905211552 32 327 3.2 4.8 0.00 0.00 0.00 64 1012.2
20260905211048 31 334 3.2 6.4 0.00 0.00 0.00 65 1012.2
20260905210543 31 64 1.6 1.6 0.00 0.00 0.00 69 1012.2
20260905210038 31 50 1.6 1.6 0.00 0.00 0.00 72 1012.2
20260905205537 31 5 1.6 3.2 0.00 0.00 0.00 67 1012.2
20260905205037 32 23 1.6 4.8 0.00 0.00 0.00 65 1012.2
20260905204532 33 301 3.2 4.8 0.00 0.00 0.00 62 1012.5
20260905204027 33 268 3.2 4.8 0.00 0.00 0.00 63 1012.2
20260905203526 33 325 4.8 6.4 0.00 0.00 0.00 62 1012.2
20260905203021 33 343 4.8 6.4 0.00 0.00 0.00 67 1012.5
20260905202517 34 13 3.2 6.4 0.00 0.00 0.00 60 1012.2
20260905202012 33 20 3.2 4.8 0.00 0.00 0.00 61 1012.2
20260905201508 34 36 1.6 3.2 0.00 0.00 0.00 58 1012.2
20260905201008 33 309 1.6 4.8 0.00 0.00 0.00 60 1012.5
20260905200504 33 304 3.2 4.8 0.00 0.00 0.00 60 1012.5
20260905200003 33 272 3.2 3.2 0.00 0.00 0.00 62 1012.5
20260905195457 33 26 1.6 4.8 0.00 0.00 0.00 60 1012.9
20260905194953 33 336 3.2 4.8 0.00 0.00 0.00 60 1012.5
20260905194451 34 0 3.2 3.2 0.00 0.00 0.00 59 1012.9
20260905193946 33 357 1.6 4.8 0.00 0.00 0.00 62 1012.9
20260905193441 33 335 3.2 4.8 0.00 0.00 0.00 61 1012.9
20260905192936 33 44 0.0 3.2 0.00 0.00 0.00 61 1012.5
20260905192431 33 303 3.2 6.4 0.00 0.00 0.00 64 1012.9
20260905191927 33 2 1.6 1.6 0.00 0.00 0.00 61 1012.9
20260905191425 33 267 3.2 4.8 0.00 0.00 0.00 61 1013.2
20260905190920 33 269 4.8 6.4 0.00 0.00 0.00 62 1013.2
20260905190418 32 254 4.8 4.8 0.00 0.00 0.00 62 1013.2
20260905185917 33 318 4.8 9.7 0.00 0.00 0.00 63 1013.2
20260905185412 32 28 1.6 4.8 0.00 0.00 0.00 65 1013.5
20260905184911 32 306 8.0 9.7 0.00 0.00 0.00 67 1013.5
20260905184411 32 327 3.2 3.2 0.00 0.00 0.00 67 1013.5
20260905183910 33 7 1.6 3.2 0.00 0.00 0.00 65 1013.5
20260905183405 33 348 1.6 4.8 0.00 0.00 0.00 65 1013.9
20260905182859 32 30 0.0 1.6 0.00 0.00 0.00 65 1013.5
20260905182353 32 303 3.2 4.8 0.00 0.00 0.00 68 1013.9
20260905181849 32 312 4.8 6.4 0.00 0.00 0.00 67 1013.9
20260905181348 32 307 4.8 4.8 0.00 0.00 0.00 68 1013.9
20260905180847 32 297 3.2 4.8 0.00 0.00 0.00 68 1013.9
20260905180342 32 356 1.6 4.8 0.00 0.00 0.00 67 1013.9
20260905175837 31 2 3.2 4.8 0.00 0.00 0.00 67 1014.2
20260905175331 31 9 3.2 4.8 0.00 0.00 0.00 72 1014.2
20260905174827 30 36 4.8 4.8 0.00 0.00 0.00 73 1014.2
20260905174323 31 6 4.8 6.4 0.00 0.00 0.00 70 1014.2
20260905173818 31 7 3.2 6.4 0.00 0.00 0.00 74 1014.2
20260905173315 31 31 0.0 1.6 0.00 0.00 0.00 73 1014.2
20260905172814 31 335 1.6 6.4 0.00 0.00 0.00 72 1014.6
20260905172312 31 332 3.2 6.4 0.00 0.00 0.00 73 1014.6
20260905171809 30 28 3.2 4.8 0.00 0.00 0.00 74 1014.6
20260905171305 31 315 3.2 9.7 0.00 0.00 0.00 74 1014.6
20260905170802 31 298 3.2 6.4 0.00 0.00 0.00 70 1014.6
20260905170257 30 328 1.6 3.2 0.00 0.00 0.00 76 1014.6
20260905165755 31 16 4.8 6.4 0.00 0.00 0.00 74 1014.6
20260905165251 30 8 1.6 4.8 0.00 0.00 0.00 73 1014.6
20260905164746 29 334 4.8 4.8 0.00 0.00 0.00 77 1014.9
20260905164246 30 341 6.4 9.7 0.00 0.00 0.00 77 1014.9
20260905163742 31 349 1.6 3.2 0.00 0.00 0.00 73 1014.9
20260905163239 30 35 0.0 4.8 0.00 0.00 0.00 74 1015.2
20260905162734 29 355 1.6 4.8 0.00 0.00 0.00 77 1015.2
20260905162234 30 5 4.8 6.4 0.00 0.00 0.00 76 1015.2
20260905161728 30 6 3.2 6.4 0.00 0.00 0.00 77 1015.2
20260905161226 30 51 0.0 1.6 0.00 0.00 0.00 76 1015.2
20260905160725 30 0 1.6 3.2 0.00 0.00 0.00 76 1015.6
20260905160219 30 341 3.2 4.8 0.00 0.00 0.00 74 1015.6
20260905155714 30 5 6.4 11.3 0.00 0.00 0.00 74 1015.6
20260905155213 29 337 1.6 3.2 0.00 0.00 0.00 78 1015.6
20260905154707 30 2 3.2 4.8 0.00 0.00 0.00 76 1015.2
20260905154203 30 272 3.2 4.8 0.00 0.00 0.00 75 1015.6
20260905153659 30 8 3.2 4.8 0.00 0.00 0.00 77 1015.6
20260905153154 30 357 4.8 11.3 0.00 0.00 0.00 78 1015.6
20260905152649 30 205 4.8 6.4 0.00 0.00 0.00 77 1015.6
20260905152143 30 22 1.6 4.8 0.00 0.00 0.00 77 1015.6
20260905151638 29 345 3.2 6.4 0.00 0.00 0.00 79 1015.6
20260905151128 30 55 1.6 1.6 0.00 0.00 0.00 76 1015.6
20260905150624 30 51 1.6 3.2 0.00 0.00 0.00 78 1015.6
20260905150122 29 326 3.2 4.8 0.00 0.00 0.00 80 1015.6
20260905145621 30 264 1.6 6.4 0.00 0.00 0.00 78 1015.6
20260905145120 29 315 1.6 4.8 0.00 0.00 0.00 79 1015.6
20260905144620 28 58 1.6 3.2 0.00 0.00 0.00 79 1015.9
20260905144119 28 356 3.2 3.2 0.00 0.00 0.00 81 1015.9
20260905143614 28 31 0.0 3.2 0.00 0.00 0.00 83 1015.9
20260905143109 28 42 0.0 0.0 0.00 0.00 0.00 80 1015.9
20260905142608 28 36 0.0 1.6 0.00 0.00 0.00 80 1015.9
20260905142108 28 276 3.2 3.2 0.00 0.00 0.00 83 1015.9
20260905141607 28 65 1.6 3.2 0.00 0.00 0.00 82 1015.6
20260905141104 27 343 3.2 3.2 0.00 0.00 0.00 85 1015.6
20260905140559 27 326 3.2 4.8 0.00 0.00 0.00 85 1015.6
20260905140058 27 12 3.2 4.8 0.00 0.00 0.00 85 1015.9
20260905135554 27 1 1.6 3.2 0.00 0.00 0.00 87 1015.9
20260905135053 27 314 3.2 4.8 0.00 0.00 0.00 87 1015.9
20260905134548 26 2 1.6 3.2 0.00 0.00 0.00 89 1015.6
20260905134047 26 1 6.4 11.3 0.00 0.00 0.00 90 1015.9
20260905133542 26 23 3.2 3.2 0.00 0.00 0.00 89 1015.9
20260905133036 25 6 3.2 3.2 0.00 0.00 0.00 91 1015.6
20260905132531 25 11 1.6 6.4 0.00 0.00 0.00 93 1015.9
20260905132026 25 359 3.2 3.2 0.00 0.00 0.00 94 1015.9
20260905131521 25 11 1.6 4.8 0.00 0.00 0.00 94 1015.9
20260905131017 25 12 1.6 3.2 0.00 0.00 0.00 96 1015.6
20260905130516 25 348 4.8 4.8 0.00 0.00 0.00 97 1015.6
20260905130011 25 12 1.6 1.6 0.00 0.00 0.00 98 1015.6
20260905125505 24 29 3.2 4.8 0.00 0.00 0.00 99 1015.6
20260905125001 24 327 4.8 6.4 0.00 0.00 0.00 99 1015.6
20260905124457 24 10 1.6 3.2 0.00 0.00 0.00 99 1015.6
20260905123953 24 330 1.6 3.2 0.00 0.00 0.00 99 1015.6